[[{"header":{"parameterUnit":"m.s-1","parameterCategory":1,"la1":30.2991,"la2":30.254,"lo1":-89.0895,"lo2":-89.0444,"dy":0.0017,"dx":0.0017,"nx":28,"ny":28,"refTime":"2023-07-19T09:00:00:Z","depth":0,"parameterNumber":2,"parameterNumberName":"U-component_of_WINDS"},"data":[0,0,0,0,0,0,0,0,0,0,0,0,0,0,0,0,0,0,0,0,0,0,0,0,0,0,0,0,0,0,0,0,0,0,0,0,0,0,0,0,0,0,0,0,0,0,0,0,0,0,0,0,0,0,0,0,0,0,-0.9618,-0.9617,0,-0.9532,-0.9531,-0.953,-0.9466,-0.9465,-0.9464,-0.9464,-0.9375,-0.9373,-0.9371,0,0,0,0,0,0,0,0,0,0,0,0,0,-0.9728,-0.9726,-0.9618,-0.9617,-0.9616,-0.9532,-0.9531,-0.953,-0.9466,-0.9465,-0.9464,-0.9464,-0.9375,-0.9373,-0.9371,0,0,0,0,0,0,0,0,0,0,0,0,0,-0.9665,-0.9726,-0.9619,-0.9574,-0.9569,-0.9533,-0.9531,-0.953,-0.9466,-0.9465,-0.9464,-0.9463,-0.9376,-0.9373,-0.9371,-0.9371,0,0,-0.9362,-0.9361,0,0,0,0,0,0,0,0,-0.9669,-0.9661,-0.9582,-0.9577,-0.9572,-0.9509,-0.9537,-0.9476,-0.9466,-0.9505,-0.9464,-0.9463,-0.942,-0.9414,-0.9399,-0.9367,-0.9363,-0.9362,-0.936,-0.9359,-0.9358,0,0,0,0,0,0,0,-0.9673,-0.9664,-0.9584,-0.9581,-0.9575,-0.9559,-0.9549,-0.9525,-0.9468,-0.9502,-0.9497,-0.9488,-0.9417,-0.9402,-0.9397,-0.9362,-0.9362,-0.936,-0.9358,-0.9357,-0.9327,-0.9327,0,0,0,0,0,0,-0.9684,-0.9668,-0.9587,-0.9582,-0.9619,-0.9557,-0.9546,-0.953,-0.9469,-0.9458,-0.9488,-0.9485,-0.9407,-0.94,-0.9393,-0.9391,-0.9359,-0.9357,-0.9355,-0.9326,-0.9327,-0.9328,0,0,0,0,0,0,-0.9687,-0.9678,-0.959,-0.9624,-0.9611,-0.9556,-0.9538,-0.9529,-0.9513,-0.9458,-0.9448,-0.9483,-0.9406,-0.9397,-0.9377,-0.9387,-0.9355,-0.9353,-0.9325,-0.9326,-0.9327,-0.9385,0,0,0,0,0,0,-0.969,-0.9679,-0.9678,-0.9624,-0.961,-0.9576,-0.9539,-0.9528,-0.9509,-0.9504,-0.9451,-0.9442,-0.9405,-0.9382,-0.9375,-0.9382,-0.9351,-0.9324,-0.9325,-0.9327,-0.9382,-0.9388,-0.9393,0,0,0,0,0,-0.9695,-0.9698,-0.9679,-0.9669,-0.9608,-0.9577,-0.9569,-0.9527,-0.951,-0.9509,-0.9474,-0.9443,-0.9387,-0.938,-0.9372,-0.9379,-0.9323,-0.9325,-0.9327,-0.9379,-0.9387,-0.9393,0,0,0,0,0,0,-0.9754,-0.969,-0.9668,-0.9654,-0.9621,-0.9566,-0.9563,-0.9535,-0.9507,-0.9503,-0.9452,-0.944,-0.9427,-0.94,-0.9394,-0.9376,-0.9351,-0.9351,-0.9394,-0.9401,-0.9406,-0.9413,-0.9348,0,0,0,0,0,-0.9766,-0.9746,-0.969,-0.9683,-0.9668,-0.9619,-0.9604,-0.9574,-0.9538,-0.9524,-0.9487,-0.9454,-0.9429,-0.9413,-0.9387,-0.9378,-0.9366,-0.9378,-0.9384,-0.9389,-0.939,-0.9385,-0.939,-0.9334,-0.9334,-0.9334,0,0,-0.9789,-0.9751,-0.9742,-0.9694,-0.9665,-0.9646,-0.9608,-0.9588,-0.9574,-0.9521,-0.9501,-0.9473,-0.9432,-0.9418,-0.941,-0.9396,-0.9403,-0.9391,-0.9396,-0.9394,-0.9387,-0.9393,-0.9398,-0.9335,-0.9335,-0.9335,0,0,-0.9822,-0.9791,-0.9782,-0.9755,-0.9712,-0.968,-0.9678,-0.9627,-0.9607,-0.9585,-0.9546,-0.9528,-0.9485,-0.9458,-0.9439,-0.9463,-0.9434,-0.9456,-0.9486,-0.9481,-0.9486,-0.9489,-0.9499,-0.9503,-0.9457,-0.9457,-0.9457,0,-0.9857,-0.9826,-0.9781,-0.9765,-0.9746,-0.9698,-0.9689,-0.9664,-0.9615,-0.9603,-0.9588,-0.9535,-0.9503,-0.9484,-0.949,-0.9475,-0.9472,-0.9462,-0.9489,-0.9492,-0.9495,-0.9504,-0.9507,-0.946,-0.946,-0.946,-0.9459,0,-0.9871,-0.9851,-0.9849,-0.9804,-0.9784,-0.9771,-0.9725,-0.9711,-0.9683,-0.9653,-0.9632,-0.9594,-0.9559,-0.9552,-0.9525,-0.9529,-0.9522,-0.9498,-0.9472,-0.9504,-0.9512,-0.9514,-0.9465,-0.9464,-0.9463,-0.9462,0,0,-0.9939,-0.987,-0.987,-0.985,-0.98,-0.9783,-0.9769,-0.9736,-0.9725,-0.9693,-0.9681,-0.9646,-0.9625,-0.9603,-0.9572,-0.9568,-0.9592,-0.9546,-0.9544,-0.9557,-0.9596,-0.9614,-0.9619,-0.9573,-0.9573,-0.9573,-0.96,0,-0.9965,-0.9937,-0.9897,-0.9883,-0.9864,-0.9818,-0.9806,-0.9775,-0.9746,-0.9726,-0.9694,-0.9671,-0.9644,-0.9631,-0.9625,-0.9591,-0.96,-0.9588,-0.9561,-0.9561,-0.9574,-0.9623,-0.9642,-0.9668,-0.9602,-0.9603,-0.9603,0,-0.9992,-0.9964,-0.9947,-0.99,-0.9891,-0.9881,-0.9848,-0.9829,-0.9793,-0.9772,-0.9749,-0.9716,-0.9699,-0.9675,-0.9652,-0.9645,-0.9632,-0.9614,-0.9613,-0.961,-0.9584,-0.9622,-0.9676,-0.968,-0.9607,-0.9606,-0.9606,0,-1.0045,-1.0002,-0.9987,-0.9971,-0.9915,-0.9909,-0.9886,-0.9848,-0.9832,-0.9803,-0.9792,-0.9761,-0.9745,-0.9723,-0.9683,-0.9669,-0.9665,-0.9637,-0.9648,-0.9649,-0.9649,-0.965,-0.9703,-0.9639,-0.9639,-0.9639,-0.9639,0,-1.0079,-1.0071,-1.0011,-1.0002,-0.9992,-0.9946,-0.9938,-0.991,-0.9878,-0.9863,-0.9821,-0.9808,-0.9756,-0.9737,-0.9706,-0.9692,-0.9685,-0.9668,-0.966,-0.9672,-0.9675,-0.9664,-0.9661,-0.964,-0.964,-0.964,-0.964,0,-1.0137,-1.0096,-1.0077,-1.0026,-1.0013,-1.0008,-0.9964,-0.9954,-0.9923,-0.9905,-0.9899,-0.985,-0.9826,-0.9784,-0.9747,-0.9726,-0.9719,-0.9705,-0.9732,-0.9727,-0.9741,-0.9741,-0.979,-0.9794,-0.9727,-0.9728,-0.9728,0,-1.0162,-1.0155,-1.0103,-1.0091,-1.0069,-1.0049,-1.0032,-0.9986,-0.997,-0.9929,-0.9924,-0.9897,-0.9873,-0.9836,-0.9798,-0.977,-0.9755,-0.9774,-0.9751,-0.9764,-0.9757,-0.9759,-0.9758,-0.978,-0.9781,-0.9782,-0.9783,0,-1.0211,-1.0191,-1.0168,-1.0138,-1.0119,-1.0093,-1.0065,-1.0057,-1.0006,-0.999,-0.9965,-0.9947,-0.991,-0.9884,-0.9851,-0.9827,-0.9797,-0.979,-0.9791,-0.9805,-0.9821,-0.9814,-0.9748,-0.9789,-0.9789,-0.9788,-0.9788,-0.9788,-1.0254,-1.0246,-1.0209,-1.0185,-1.0159,-1.0135,-1.0123,-1.0091,-1.0069,-1.0036,-1.0011,-0.9988,-0.9953,-0.9905,-0.9883,-0.9865,-0.9851,-0.9853,-0.9853,-0.9855,-0.986,-0.9823,-0.9859,-0.9859,-0.9859,-0.9858,-0.9858,0,-1.0302,-1.0276,-1.0255,-1.0217,-1.0199,-1.0172,-1.014,-1.0126,-1.0107,-1.0076,-1.0054,-1.0026,-1.0,-0.9961,-0.9932,-0.9926,-0.9911,-0.992,-0.992,-0.9916,-0.9874,-0.9876,-0.9932,-0.9932,-0.9932,-0.9932,-0.9932,-0.9932,-1.0325,-1.0311,-1.0287,-1.0261,-1.0234,-1.0212,-1.0196,-1.0174,-1.0149,-1.012,-1.0099,-1.0073,-1.0039,-1.0008,-0.9984,-0.9973,-0.9965,-0.9979,-0.9964,-0.9925,-0.9918,-0.9912,-0.9914,-0.9977,-0.9977,-1.0007,-1.0007,-1.0008]},{"header":{"parameterUnit":"m.s-1","parameterCategory":1,"la1":30.2991,"la2":30.254,"lo1":-89.0895,"lo2":-89.0444,"dy":0.0017,"dx":0.0017,"nx":28,"ny":28,"refTime":"2023-07-19T09:00:00:Z","depth":0,"parameterNumber":3,"parameterNumberName":"V-component_of_WINDS"},"data":[0,0,0,0,0,0,0,0,0,0,0,0,0,0,0,0,0,0,0,0,0,0,0,0,0,0,0,0,0,0,0,0,0,0,0,0,0,0,0,0,0,0,0,0,0,0,0,0,0,0,0,0,0,0,0,0,0,0,4.0447,4.0446,0,4.0386,4.0386,4.0385,4.0361,4.0361,4.0361,4.0361,4.0294,4.0292,4.029,0,0,0,0,0,0,0,0,0,0,0,0,0,4.0537,4.0536,4.0447,4.0446,4.0446,4.0386,4.0386,4.0385,4.0361,4.0361,4.0361,4.0361,4.0294,4.0292,4.0289,0,0,0,0,0,0,0,0,0,0,0,0,0,4.0489,4.0535,4.0447,4.0427,4.0424,4.0387,4.0386,4.0385,4.0361,4.0361,4.0361,4.0362,4.0295,4.0292,4.0289,4.0266,0,0,4.028,4.0279,0,0,0,0,0,0,0,0,4.0492,4.0486,4.043,4.0428,4.0425,4.0382,4.0393,4.0345,4.0361,4.0385,4.0361,4.0362,4.0322,4.0317,4.0305,4.0263,4.026,4.028,4.0278,4.0277,4.0276,0,0,0,0,0,0,0,4.0496,4.0489,4.0423,4.043,4.0427,4.0419,4.0412,4.0383,4.0353,4.0383,4.0381,4.0374,4.0321,4.0308,4.0303,4.0259,4.028,4.0277,4.0276,4.0274,4.0194,4.0194,0,0,0,0,0,0,4.0503,4.0492,4.0425,4.0421,4.046,4.0417,4.041,4.0395,4.0353,4.0347,4.0374,4.0373,4.0313,4.0307,4.0301,4.0271,4.0277,4.0274,4.0272,4.0194,4.0194,4.0193,0,0,0,0,0,0,4.0505,4.0497,4.0427,4.0456,4.0446,4.0415,4.0399,4.0394,4.0381,4.0347,4.034,4.0367,4.0313,4.0305,4.0275,4.0268,4.0273,4.027,4.0195,4.0194,4.0194,4.021,0,0,0,0,0,0,4.0508,4.0498,4.049,4.0456,4.0445,4.0404,4.0399,4.0393,4.0377,4.0375,4.0338,4.0332,4.0312,4.028,4.0272,4.0264,4.0268,4.0195,4.0194,4.0194,4.021,4.021,4.021,0,0,0,0,0,4.0511,4.0496,4.049,4.0482,4.0435,4.0404,4.0397,4.0377,4.0376,4.0367,4.0345,4.0333,4.027,4.0277,4.0268,4.0259,4.0196,4.0195,4.0194,4.021,4.021,4.021,0,0,0,0,0,0,4.0528,4.0491,4.0484,4.0458,4.0435,4.04,4.0388,4.0378,4.0352,4.0352,4.0325,4.0317,4.0289,4.0271,4.0279,4.0234,4.0232,4.0229,4.0247,4.0247,4.0247,4.0252,4.0265,0,0,0,0,0,4.0529,4.0509,4.0477,4.0457,4.0446,4.0419,4.0405,4.0391,4.0365,4.0355,4.033,4.0304,4.0278,4.0261,4.0236,4.0208,4.0199,4.0197,4.0197,4.0197,4.0195,4.0179,4.0177,4.0191,4.0191,4.0191,0,0,4.053,4.0508,4.0496,4.046,4.044,4.0419,4.0411,4.0388,4.0371,4.035,4.0321,4.0303,4.0271,4.0243,4.0228,4.0226,4.019,4.0196,4.0197,4.0194,4.0178,4.0176,4.0175,4.019,4.019,4.019,0,0,4.0522,4.0503,4.0485,4.0465,4.0437,4.0419,4.0414,4.0382,4.0369,4.034,4.0324,4.0303,4.0259,4.0237,4.0221,4.0205,4.0193,4.0197,4.0197,4.0182,4.0181,4.018,4.0174,4.0172,4.0195,4.0195,4.0195,0,4.0527,4.0495,4.0476,4.0454,4.0438,4.0421,4.0401,4.0382,4.0346,4.0334,4.0333,4.0278,4.0256,4.0222,4.0218,4.0205,4.0198,4.0201,4.0183,4.0181,4.018,4.0174,4.0172,4.0196,4.0196,4.0196,4.0196,0,4.0502,4.0481,4.0469,4.0436,4.0419,4.0398,4.0374,4.0359,4.0346,4.0328,4.0299,4.0271,4.024,4.0231,4.0218,4.0195,4.0194,4.0188,4.0185,4.018,4.0174,4.0171,4.0197,4.0197,4.0196,4.0196,0,0,4.0502,4.046,4.0456,4.0441,4.0408,4.039,4.0368,4.034,4.0327,4.0302,4.0282,4.0246,4.0241,4.0222,4.0206,4.0192,4.0181,4.0187,4.0186,4.0187,4.0153,4.0158,4.0156,4.0173,4.0173,4.0172,4.0156,0,4.0489,4.0452,4.0433,4.0403,4.0382,4.0365,4.0346,4.0323,4.0306,4.0284,4.0264,4.0239,4.0234,4.0222,4.0208,4.0186,4.0174,4.0187,4.0153,4.0152,4.0162,4.0153,4.0158,4.0143,4.0154,4.0153,4.0153,0,4.0469,4.0446,4.0415,4.0385,4.0375,4.0359,4.0331,4.0311,4.0284,4.0272,4.0252,4.0237,4.0212,4.0212,4.0176,4.0185,4.017,4.0157,4.0156,4.0152,4.0152,4.0148,4.0138,4.0136,4.0149,4.0149,4.0149,0,4.0472,4.0433,4.041,4.0397,4.0362,4.035,4.0335,4.0308,4.0292,4.0267,4.0257,4.0228,4.0213,4.0191,4.0168,4.017,4.0135,4.0132,4.0123,4.0124,4.0116,4.0117,4.0104,4.0107,4.0107,4.0107,4.0107,0,4.0459,4.044,4.0411,4.0396,4.0374,4.0353,4.0331,4.0313,4.029,4.0271,4.0253,4.0235,4.0207,4.0184,4.0166,4.0139,4.0132,4.0121,4.0116,4.0123,4.0124,4.0112,4.0112,4.0107,4.0107,4.0107,4.0107,0,4.0458,4.0438,4.0411,4.038,4.0372,4.0357,4.033,4.0314,4.0296,4.0272,4.0265,4.0236,4.0209,4.0185,4.0148,4.0136,4.0108,4.0102,4.0118,4.0115,4.0108,4.0109,4.0086,4.0082,4.0089,4.0089,4.0089,0,4.0451,4.0437,4.0405,4.0392,4.0377,4.0355,4.034,4.0318,4.0302,4.027,4.0258,4.023,4.0207,4.0164,4.0139,4.011,4.0104,4.0098,4.0099,4.0106,4.0103,4.0104,4.0103,4.0098,4.0098,4.0098,4.0098,0,4.0441,4.0432,4.0411,4.0387,4.0369,4.0348,4.0326,4.0316,4.0289,4.0272,4.0245,4.0227,4.0191,4.0163,4.0132,4.0114,4.0101,4.0098,4.0094,4.01,4.011,4.0104,4.0118,4.0098,4.0098,4.0098,4.0098,4.0098,4.0437,4.0423,4.0399,4.0376,4.0358,4.0338,4.0322,4.0304,4.0281,4.0252,4.0239,4.0212,4.0185,4.0143,4.0125,4.0102,4.0099,4.0094,4.0092,4.0091,4.0093,4.0114,4.0096,4.0096,4.0096,4.0096,4.0096,0,4.0425,4.041,4.0389,4.036,4.0342,4.0334,4.0309,4.0294,4.0271,4.0248,4.0226,4.0195,4.0168,4.0141,4.0112,4.0099,4.0092,4.0092,4.0092,4.0088,4.0096,4.0103,4.0098,4.0098,4.0098,4.0098,4.0098,4.0098,4.0418,4.0394,4.0382,4.035,4.0333,4.0308,4.0295,4.0276,4.0257,4.0224,4.0203,4.0186,4.0161,4.013,4.0105,4.0098,4.0087,4.0089,4.008,4.0088,4.0088,4.0088,4.0093,4.0087,4.0087,4.0074,4.0073,4.0073]}]]